Rib Lake, WI (54470)

11:43 AM CST on February 08, 2016 (GMT -0600)
APRSWXNET | | Change Station
CLOSE
Current Station
Personal Weather Station
Location: Ogema, WI
Elevation: 1469 ft
Nearby Weather Stations

Elev 1469 ft 45.40 °N, 90.20 °W | Updated 35 minutes ago

Overcast
Overcast
17 °F
Feels Like 8 °F
N
6
Wind Variable Wind from North
Gusts 14.0 mph

Today
High -- | Low -- °F
--% Chance of Precip.
Yesterday
High -- | Low -- °F
Precip. -- in
Pressure 29.71 in
Visibility 5.0 miles
Clouds Overcast 1100 ft
Windchill 8 °F
Dew Point 14 °F
Humidity 86%
Rainfall in
Snow Depth Not available.
7:13 AM 5:17 PM
New Moon, 0% visible
METAR KMDZ 081735Z AUTO 32012G20KT 5SM BR OVC011 M08/M10 A2971 RMK AO2 T10811102
Pressure 29.71 in
Visibility 5.0 miles
Clouds Overcast 1100 ft
Windchill 8 °F
Dew Point 14 °F
Humidity 86%
Rainfall in
Snow Depth Not available.
7:13 AM 5:17 PM
New Moon, 0% visible
METAR KMDZ 081735Z AUTO 32012G20KT 5SM BR OVC011 M08/M10 A2971 RMK AO2 T10811102

10-Day Weather Forecast

Almanac

Astronomy

Feb. 08, 2016 Rise Set
Actual Time
Civil Twilight
Nautical Twilight
Astronomical Twilight
Moon
Length of Visible Light
Length of Day
Tomorrow will be .
, % of the Moon is Illuminated

Today's Extremes

State Highs State Lows

Community

WunderPhotos

Upload Photos

1,891,476 photos uploaded!

WunderBlog® & News

Nearby

Air Quality

  Air Quality AQ Index Pollutant
Not available.

Snow Depth

Station Depth Elevation

Earthquake Activity

City Distance Mag. Time & Date
Minimum magnitude displayed is 2.5.

Coastal Water Temperatures

Place Temperature

Stations

Nearby Weather Stations

Station Location Temp. Windchill Dew Point Humidity Wind Precip. Elev Updated Type
                   

Watches & Warnings

There are currently no watches in effect.